SL-19 DEB, 23489

Orbit data source: Space-Track

SL-19 DEB, 23489 is space debris in LEO originally from a launch on Mon, 26 Dec 1994 UTC launched from the Tyuratam Missile And Space Complex (TTMTR). Debris objects in space refer to the collection of defunct objects orbiting the Earth. Examples of debris include non-operational satellites, rocket bodies, and fragments generated from explosions, collisions, or faulty payload assembly.

Loading next visibility...
Identifier
23489, 1994-085M
Orbit
LEO
Country
Flag of CISCIS
Related business
Manufacturer
Unknown
Mission
Spacecraft
Bus & Motor
Unknown
Mass
Unknown
Launch date (UTC)
1994-12-26 (31 years ago)
Launch vehicle
Unknown
Launch site
Tyuratam Missile And Space Complex (TTMTR)
Object type
Payload
Rocket body
Debris
Shape & HBR
Unknown shape, 0.5 m
Radar Cross Section
Medium (>0.1 m² and <1 m²)

Expand to show TLE details & history
Last TLE update: 2 days ago

TLE from 2 days ago
0 SL-19 DEB
1 23489U 94085M   26171.34385147  .00001163  00000-0  33185-1 0  9996
2 23489  64.9352  19.7702 0188703 196.9507 335.9279 11.29109384296336
Epoch: 2026-06-20T08:15Z
TLE epoch observation values (Epoch: 2026-06-20T08:15:08.767Z)
Latitude
7.21688°
Longitude
164.04467°
Altitude
1,871.684 km
Speed
7.012 km/s
True Right ascension
13h 05m 33s
True Declination
7° 10' 48"
Sunlit
Object was in daylight at epoch
Visualization orbit readout
Latitude
Unknown
Longitude
Unknown
Altitude
Unknown
Speed
Unknown
Apparent Right ascension
Unknown
Apparent Declination
Unknown
Sunlit
N/A
Visualization observer readout
Local Sidereal Time
01:06:57
Azimuth
Unknown
Elevation
Unknown
Doppler factor
Unknown
Orbital elements
Apogee altitude
2,171.893 km
Perigee altitude
1,855.186 km
Semi-major axis
8,391.676 km
Eccentricity
0.01887
Inclination
64.9352°
RAAN
19.7702°
Arg. of periapsis
196.9507°
True anomaly
335.02654°
Mean anomaly
335.9279°
Eccentric anomaly
335.47918°
Mean motion
2.82338 °/min
Orbital period
127.51 mins
BSTAR
0.033185
Loading maneuver chart data...
Computing Atmospheric mass density...
Loading historical data...
Loading historical data...
Loading historical data...
Loading historical data...
Loading historical data...
Loading historical data...
Loading historical data...

Documentation

Showing up to 5 results
|